RH
19 19 18 17 20 23 24 22 21 21 21 20 20 20 19 17 15 16 18 18 18 18 18 18 18 17 16 15 13 13 17 14 10 15 20 22 19 17 17 13 12 12 14 17 18 16 12 11 11 11 11 10 10 12 14 14 14 16 16 15 15 15 17 18 16 17 18 17 16 15 18 18 16 22 24 21 23 28 30 28 25 24 21 20 22 22 22 22
19 19 18 18 21 24 24 22 21 21 20 19 18 18 18 17 16 15 16 16 16 16 17 17 17 17 16 16 15 13 15 12 8 13 18 17 15 15 15 14 11 10 15 19 18 14 10 9 9 9 8 8 10 11 14 14 14 15 14 14 18 18 17 17 16 17 17 18 16 14 16 16 17 21 20 21 25 29 32 31 27 26 24 22 21 22 21 21
20 19 18 19 21 24 23 21 20 20 19 18 16 16 16 17 17 15 15 14 13 13 14 15 14 15 14 15 15 14 16 12 8 12 14 15 15 13 14 14 11 9 15 19 18 15 12 10 9 8 7 8 10 10 14 17 17 16 15 16 20 19 15 15 16 16 15 16 14 12 14 16 21 21 19 24 25 26 33 34 32 29 25 22 20 20 20 19
21 19 18 19 22 23 22 20 19 20 19 18 16 15 14 16 17 16 14 11 12 12 13 14 14 14 12 14 14 15 18 12 9 13 14 15 15 13 14 14 10 8 14 18 17 16 15 12 10 8 9 11 11 12 15 18 18 17 17 18 17 16 15 15 14 13 14 14 14 13 14 17 21 23 23 26 25 28 38 39 34 29 23 21 19 19 18 17
21 20 19 20 22 23 21 19 18 19 18 16 16 14 12 15 17 16 13 13 15 16 16 16 15 15 13 14 14 16 18 13 11 14 14 16 15 13 14 13 8 8 14 17 15 14 14 11 10 10 12 13 13 15 17 17 18 19 18 17 15 15 15 15 12 13 16 14 15 14 15 19 19 24 29 30 34 38 40 37 30 24 21 20 18 18 18 18
21 20 19 19 21 21 19 18 18 19 17 15 16 14 11 14 15 15 14 15 16 14 16 16 14 15 16 15 14 15 16 14 14 15 15 17 15 14 14 11 7 9 14 15 12 11 10 8 9 12 13 14 14 16 18 16 17 20 19 15 15 15 14 14 12 15 17 15 15 15 17 20 16 23 30 33 40 39 33 29 25 22 20 18 17 17 18 18
21 20 19 19 19 19 18 17 18 17 15 15 16 14 12 15 15 15 14 13 11 9 10 13 14 14 16 17 15 12 12 14 14 15 17 16 14 14 13 9 7 11 12 11 11 9 9 8 9 12 15 15 16 17 18 17 17 19 20 17 15 15 14 14 13 12 15 16 16 15 16 18 17 23 30 34 38 34 28 26 23 21 19 18 18 18 18 19
21 20 19 20 19 18 18 17 18 16 14 15 16 14 12 14 14 13 12 10 8 7 7 10 13 12 11 18 18 11 12 14 13 16 17 16 14 12 10 8 8 10 10 11 12 10 9 11 11 14 16 15 17 18 19 19 20 21 20 17 15 15 14 12 11 10 13 16 14 12 12 15 20 25 31 33 31 28 25 23 21 19 19 18 19 19 19 19
22 21 19 19 17 16 17 17 17 15 14 15 16 15 14 14 13 12 11 10 8 8 8 8 10 10 9 15 16 10 13 14 14 16 16 15 13 10 8 8 10 9 10 13 12 10 10 12 13 13 14 14 14 18 20 18 21 25 20 16 12 12 12 9 9 8 11 15 12 12 10 14 22 25 32 32 26 23 19 18 18 17 17 17 17 18 18 18
22 19 18 17 16 16 16 17 16 15 15 14 15 16 16 16 14 12 12 11 9 8 10 9 10 12 11 12 12 11 13 14 14 15 15 15 11 8 8 6 10 10 10 13 14 14 11 12 14 13 14 15 17 20 21 19 22 23 17 17 14 10 11 8 8 8 9 13 11 11 11 15 22 26 34 31 22 19 17 17 16 16 17 16 17 17 17 17
20 17 17 16 15 15 16 17 17 16 15 14 14 15 15 15 14 13 14 13 10 8 8 9 10 11 10 9 11 11 13 14 15 15 14 14 11 8 8 6 10 11 9 11 14 16 15 15 14 13 16 17 19 22 21 21 25 20 12 19 18 10 10 8 8 10 9 11 10 11 12 17 25 29 34 30 21 18 17 17 16 16 16 15 16 16 17 17
17 16 16 15 15 15 16 17 17 17 15 14 14 14 13 14 14 14 16 14 10 8 8 10 10 11 11 9 10 11 13 15 15 14 14 15 14 10 9 8 10 13 9 9 13 15 17 17 12 13 17 18 19 23 25 21 20 18 12 17 16 10 11 9 10 11 9 12 11 13 16 22 31 33 32 28 21 17 16 17 16 16 16 15 15 15 17 18
17 17 16 14 15 15 16 17 17 16 15 14 14 13 13 13 13 14 16 13 10 10 10 11 11 13 15 12 10 11 13 16 14 13 12 13 16 13 11 10 9 14 11 10 14 14 16 16 11 14 17 18 19 24 27 19 13 16 15 15 15 14 14 11 12 12 11 13 11 16 21 26 33 33 30 26 19 17 17 17 17 16 16 15 15 15 17 19
18 18 16 15 16 16 17 17 16 15 15 15 14 13 13 12 11 11 14 13 10 10 10 12 13 13 13 12 10 10 13 15 13 13 12 12 15 13 12 11 9 12 13 13 14 14 17 16 14 16 17 19 23 26 24 16 12 15 16 17 16 17 16 12 14 14 15 15 11 18 23 23 30 32 29 25 19 17 18 17 17 16 16 16 16 16 17 19
18 18 16 16 16 16 16 15 15 15 15 14 12 12 12 10 10 10 10 9 8 8 8 12 15 13 12 11 10 11 12 12 12 14 14 15 15 12 11 12 10 10 11 12 12 13 15 14 14 15 15 17 21 24 20 14 13 14 18 22 18 18 18 14 15 16 17 16 12 20 24 20 26 30 28 25 20 18 18 17 17 17 16 16 16 16 17 19
17 17 16 16 15 14 15 15 15 14 14 13 12 12 12 11 11 11 10 8 8 9 9 13 14 13 13 11 9 11 11 11 12 13 15 17 16 14 12 11 11 9 9 10 11 12 12 13 19 18 14 14 15 17 16 15 16 15 18 22 21 20 20 16 15 17 17 16 15 22 24 21 24 27 27 26 22 18 18 18 18 18 17 16 16 16 17 19
16 16 15 14 13 13 14 13 12 11 11 11 11 12 12 12 12 11 11 9 8 9 11 14 14 13 13 12 11 11 11 12 12 13 14 16 15 15 13 10 10 8 8 9 8 10 10 13 21 19 14 14 14 15 17 22 22 19 19 21 21 21 21 18 17 16 17 20 21 21 20 20 24 26 27 28 23 19 19 19 18 18 18 17 17 17 17 20
15 15 15 14 13 13 12 10 10 10 11 11 12 11 10 11 10 11 13 12 12 13 14 15 17 18 15 12 12 12 12 13 13 12 14 16 15 16 14 12 11 8 8 9 9 12 12 12 15 16 17 17 17 18 22 25 24 23 24 24 23 21 20 19 19 18 21 27 25 20 18 18 23 27 27 29 24 20 19 19 19 18 18 18 18 20 22 23
15 15 14 13 12 11 9 9 11 12 14 13 12 12 13 14 12 13 16 18 19 21 20 20 20 20 17 13 12 13 13 13 13 12 13 17 17 16 14 13 13 11 11 12 13 17 17 16 17 19 23 23 20 21 23 23 24 27 27 25 24 23 21 19 19 19 24 31 26 20 19 17 22 28 29 30 25 20 20 19 19 19 18 19 20 23 25 26
16 14 13 12 10 10 9 11 12 12 13 13 14 18 19 18 15 16 20 23 24 23 21 23 20 15 14 13 12 14 14 12 11 11 14 18 18 15 12 13 13 13 17 21 21 20 19 21 24 24 25 25 22 23 25 24 26 26 23 22 23 23 22 18 19 18 20 28 26 20 19 17 24 29 28 29 25 20 20 20 20 20 20 20 23 25 27 28
15 13 12 11 10 10 10 10 11 11 12 12 16 23 24 25 22 19 24 26 26 22 18 19 17 13 15 15 15 16 14 11 9 10 14 17 16 13 12 14 16 16 20 27 26 21 20 25 29 27 24 26 26 24 24 24 25 22 19 21 23 23 21 19 20 19 17 24 25 20 18 21 27 28 28 28 25 22 21 21 21 21 22 23 25 27 28 28
13 12 11 10 11 11 10 11 11 12 12 14 20 25 27 28 23 20 24 23 23 23 19 19 16 13 16 15 15 17 14 13 12 10 15 17 14 16 18 17 19 21 20 22 22 18 21 27 28 25 24 30 31 24 20 22 23 19 18 23 24 22 22 21 19 18 18 22 24 22 21 24 27 27 27 25 24 23 21 21 22 22 25 27 26 29 30 29
11 11 10 10 10 10 10 12 12 12 15 21 26 26 23 20 15 18 24 19 21 26 21 20 17 14 15 14 16 16 13 17 16 12 16 16 16 23 24 19 20 23 21 19 17 18 23 24 23 25 29 31 28 21 21 21 20 20 20 24 25 23 25 25 22 20 20 22 25 24 24 26 29 28 26 25 24 24 23 23 26 26 27 27 26 28 29 29
11 9 9 10 9 11 12 12 13 10 12 18 20 19 18 15 13 19 23 19 21 26 22 22 19 15 16 16 18 17 14 17 16 14 18 18 20 23 23 26 25 23 25 27 23 23 27 24 24 31 32 26 21 21 24 22 19 23 24 24 24 23 24 26 24 21 20 24 29 26 22 23 28 31 28 27 26 24 25 26 27 27 25 26 27 27 27 27
13 11 11 11 10 13 11 12 15 10 13 20 18 15 14 15 15 17 23 20 17 23 25 25 20 16 18 17 19 21 19 18 15 17 20 20 24 24 23 29 26 22 29 32 25 24 27 25 28 32 25 20 20 22 25 24 21 23 23 22 22 22 23 25 23 22 21 24 26 24 24 24 25 30 31 28 26 25 27 28 26 25 26 28 29 28 28 27
13 12 13 12 13 14 12 18 17 11 22 28 20 15 15 18 18 17 23 19 13 21 26 23 19 18 19 16 18 25 25 21 17 16 18 21 28 30 27 25 23 25 32 32 25 24 26 25 27 27 21 19 21 21 23 24 23 22 22 22 21 22 26 26 24 26 26 24 23 21 25 25 23 29 31 27 28 29 28 29 28 29 31 31 30 30 30 26
10 11 11 12 13 13 17 22 15 14 29 29 17 15 18 19 17 18 23 17 15 24 24 20 18 19 19 17 20 25 24 23 19 14 16 22 26 30 28 24 23 27 34 34 26 24 28 26 25 23 20 20 22 21 21 23 26 24 21 22 23 25 28 28 26 26 23 22 22 19 20 23 23 28 32 28 30 32 30 32 32 32 33 31 30 29 27 21
9 10 9 10 10 12 16 16 16 26 32 23 17 18 18 18 19 23 22 15 17 23 22 22 20 17 18 19 20 22 24 26 22 15 17 22 23 25 25 25 26 27 33 32 21 25 34 29 29 29 22 20 22 21 20 23 25 23 22 24 26 27 28 26 25 23 21 23 25 18 17 25 25 26 33 32 31 33 34 36 36 33 33 33 29 24 21 19
9 8 8 9 8 10 12 11 20 30 23 16 18 18 18 18 22 25 18 14 19 22 23 25 21 20 25 26 23 23 25 27 25 21 21 21 20 22 25 28 31 29 29 25 19 29 34 29 36 37 25 22 22 20 20 23 24 23 23 24 24 24 23 22 21 22 24 26 26 20 18 27 27 25 31 33 33 38 38 36 36 33 33 32 26 21 19 18
10 9 9 11 13 13 13 15 19 20 17 19 20 19 20 21 22 20 12 15 23 28 30 27 23 26 31 31 27 27 28 28 29 28 25 23 20 22 28 34 33 27 25 26 27 34 36 38 47 39 26 23 23 21 22 23 23 21 21 21 22 21 18 18 18 21 27 27 24 20 18 26 30 23 25 35 41 46 47 42 37 36 34 29 23 19 18 16
12 13 11 12 17 18 21 26 21 17 19 20 19 20 23 23 19 14 13 23 28 30 33 31 31 32 31 30 26 27 31 31 31 30 26 23 22 22 25 31 31 23 20 23 30 37 37 38 41 36 30 28 24 21 24 27 23 20 20 20 24 23 18 19 19 22 33 31 23 20 19 26 29 22 26 39 45 44 46 45 42 39 34 26 20 17 15 14
13 16 13 14 18 18 25 28 21 19 21 21 22 22 22 20 15 13 18 26 27 27 32 36 36 33 31 31 28 30 32 29 29 34 32 25 24 28 27 28 32 27 19 19 25 31 30 26 29 36 35 28 23 19 21 25 22 19 20 23 31 32 30 34 30 29 36 31 22 21 23 25 23 23 31 38 38 37 39 42 42 38 30 21 17 16 14 12
16 17 16 17 19 18 23 23 20 22 21 23 25 20 18 15 15 21 22 20 25 33 39 41 35 31 30 28 27 31 33 29 28 32 33 26 22 28 29 29 34 32 22 19 20 23 26 26 27 32 30 23 20 19 20 23 21 20 22 27 36 42 48 51 41 38 41 33 25 22 25 29 24 25 33 32 31 35 37 39 37 30 22 17 15 14 14 14
17 17 17 20 21 22 24 22 24 25 20 22 24 18 15 13 18 30 25 18 28 38 41 39 33 30 29 25 26 31 29 29 32 30 27 23 19 21 24 27 33 34 28 22 22 24 26 27 26 26 25 22 21 21 24 26 23 21 20 23 31 37 48 53 44 47 53 43 32 27 29 34 32 30 31 29 30 33 32 31 28 21 15 14 14 13 14 15
17 16 17 19 21 24 26 26 26 21 18 22 20 16 16 15 16 21 22 25 31 35 39 39 33 25 23 24 29 33 32 30 31 29 24 22 21 22 25 27 29 35 36 28 26 29 25 24 29 29 22 20 23 26 27 27 25 21 18 23 30 30 34 41 40 43 49 46 36 29 28 28 26 28 30 29 30 28 26 25 21 17 15 14 13 12 13 15
18 16 17 18 21 23 24 27 25 19 21 22 18 17 19 20 19 21 34 42 36 33 34 32 30 21 15 21 25 30 37 34 27 25 26 27 27 26 29 31 30 36 41 33 29 30 26 24 31 32 25 20 22 24 25 26 24 21 23 27 28 25 28 38 41 34 36 45 38 28 32 30 25 29 29 27 27 25 25 24 18 14 14 13 13 11 13 15
17 16 19 18 18 21 22 23 22 20 22 21 20 21 21 24 29 34 47 50 41 38 28 20 28 25 15 17 20 24 33 33 26 22 22 28 31 30 30 33 35 36 39 40 34 30 31 30 27 27 28 27 23 24 27 26 22 23 28 28 25 28 30 33 42 42 43 50 41 32 42 44 34 31 27 25 28 27 26 26 22 18 15 12 11 11 12 13
16 17 23 19 14 19 21 20 20 21 20 21 27 28 24 29 38 44 51 51 46 40 23 16 28 29 19 17 19 25 31 28 22 19 19 24 30 34 32 31 36 36 38 44 38 29 32 33 26 21 25 29 27 26 28 27 25 24 26 25 27 36 38 33 43 54 56 58 50 42 48 46 35 31 30 30 31 29 26 24 21 19 16 12 10 10 12 13
18 21 25 19 13 15 16 17 19 20 18 21 27 28 28 37 47 52 57 56 47 36 22 20 28 26 21 22 21 25 32 27 18 18 21 22 29 37 35 31 36 38 38 42 36 30 31 31 27 23 22 26 24 22 24 25 26 26 25 26 28 33 37 37 41 46 52 60 62 59 56 44 29 27 30 30 27 24 23 21 19 17 16 12 9 10 12 14
24 25 22 16 13 14 16 20 23 24 26 26 27 30 35 43 53 59 65 63 49 34 25 22 24 23 22 27 27 26 31 26 20 20 21 22 29 36 36 35 36 37 40 40 32 30 31 29 28 25 22 24 23 20 21 21 24 28 30 33 35 33 33 37 39 39 47 58 64 69 66 45 26 24 26 24 21 20 21 21 19 17 13 10 9 11 13 16
26 25 24 17 12 14 19 26 30 28 27 26 27 36 43 47 53 60 72 79 63 41 33 29 26 24 23 26 26 27 28 22 21 23 21 23 27 30 43 52 45 40 40 36 30 31 31 29 29 28 24 23 23 21 20 20 22 25 29 34 36 36 37 41 46 46 48 53 56 68 76 55 30 22 20 19 19 19 19 20 19 16 11 9 10 13 13 16
22 21 22 16 12 19 26 31 35 31 27 32 38 45 50 50 50 53 62 69 59 41 37 36 32 29 28 28 28 29 28 21 21 24 23 27 26 31 57 71 61 52 47 36 31 35 38 34 32 32 26 24 25 24 22 22 22 23 28 30 32 37 39 42 50 49 48 50 48 57 72 57 27 17 18 18 18 18 18 19 18 14 10 9 11 13 13 16
22 20 19 15 13 22 28 29 35 35 36 46 50 48 50 46 43 46 48 47 43 36 33 36 39 35 32 34 33 31 28 25 25 26 24 27 33 48 73 79 67 54 46 37 31 37 43 37 32 32 26 24 27 25 23 25 26 27 29 28 32 40 39 39 46 48 51 55 51 59 71 53 23 16 18 17 18 19 19 19 17 12 10 10 11 12 13 16
26 22 22 18 12 17 25 26 31 36 40 45 44 45 49 46 41 42 42 40 39 32 28 34 40 38 38 40 36 31 30 28 26 29 27 26 43 73 87 83 70 48 38 45 45 43 43 31 27 34 33 31 33 30 29 30 28 27 27 30 38 46 49 48 48 50 55 53 49 61 70 47 23 20 19 18 20 20 20 19 15 11 10 11 11 11 13 18
24 22 23 22 18 22 29 31 32 36 40 39 37 38 40 43 49 51 45 44 45 35 29 36 40 36 39 43 38 33 33 29 25 30 31 27 45 78 89 87 78 53 47 66 63 48 41 28 25 35 40 41 41 37 34 31 28 26 27 39 51 55 56 51 45 49 55 49 45 56 60 41 25 23 21 21 23 22 23 20 14 10 10 11 11 11 14 19
21 20 20 21 23 26 29 31 30 33 36 34 31 33 34 35 47 55 49 44 46 41 34 37 40 35 36 41 38 31 33 34 30 28 30 28 38 62 79 86 82 67 71 85 72 47 37 30 26 28 33 39 38 34 30 27 29 29 32 49 62 63 59 49 45 48 47 47 50 49 46 41 33 27 26 25 24 24 25 20 14 11 10 10 10 11 15 20
25 21 23 25 26 24 23 25 25 28 32 29 25 32 36 33 38 46 46 44 47 45 37 36 39 36 34 37 34 29 33 36 31 28 30 32 34 46 64 75 77 83 93 86 63 45 35 34 39 37 34 34 32 30 28 27 30 30 33 46 59 66 67 59 54 47 38 49 57 41 34 43 41 31 29 27 24 25 26 20 14 11 10 10 10 12 17 20
29 26 33 39 34 26 24 26 28 33 35 30 28 33 36 34 35 38 40 44 47 43 36 36 39 37 34 35 30 27 33 32 29 37 42 41 40 40 51 61 67 83 89 60 40 44 38 36 52 56 45 36 31 30 29 28 29 29 31 36 42 55 70 69 62 48 40 52 56 38 35 45 40 31 29 26 24 25 25 19 12 9 10 11 10 13 17 19
30 26 33 42 39 32 32 34 36 38 34 29 29 32 33 31 35 37 38 40 38 36 35 31 30 33 35 38 31 25 28 27 27 42 53 54 53 45 44 50 52 64 64 39 36 52 44 38 59 66 53 42 34 30 29 28 28 30 32 32 31 39 55 64 60 48 41 46 44 37 41 44 36 31 28 23 22 25 22 15 10 9 11 11 12 14 16 19
30 27 29 34 31 30 32 33 35 35 30 27 27 31 33 31 32 38 40 37 31 31 34 29 30 39 42 41 36 28 29 30 28 35 45 50 53 48 42 41 42 50 49 35 41 53 44 44 61 60 51 46 35 28 29 28 28 30 30 29 29 31 37 47 52 47 47 50 43 41 49 48 35 27 23 22 23 24 20 13 10 10 11 12 13 14 16 20
26 28 28 26 24 28 29 26 28 27 20 19 24 31 33 29 29 35 41 46 43 36 34 29 31 44 51 48 42 34 34 38 35 34 35 35 39 41 37 32 36 49 51 44 48 50 41 42 47 47 48 44 31 27 29 26 27 37 39 34 30 31 34 39 42 42 46 51 49 50 54 48 31 22 23 24 24 24 19 12 10 11 11 13 14 15 18 22
27 27 29 30 26 27 27 24 24 24 22 29 35 38 37 32 31 33 32 43 53 51 49 43 34 35 41 44 46 46 45 46 43 40 37 34 34 36 35 35 39 45 49 50 52 51 46 42 38 41 49 42 30 28 28 29 37 45 43 35 29 29 31 32 32 32 33 38 45 50 45 34 24 23 26 26 25 25 20 12 11 12 13 13 14 16 20 24
Wind_Speed
7 7 8 9 11 11 9 8 8 8 9 10 10 8 7 9 10 10 9 8 6 5 5 3 3 2 2 3 5 8 9 14 21 25 22 18 22 19 18 20 20 16 9 7 4 3 3 4 3 3 6 3 1 1 1 1 3 4 3 4 4 5 6 8 10 9 10 11 12 12 10 11 10 5 3 2 2 6 6 8 9 9 12 13 14 15 14 13
7 8 8 10 11 10 9 8 7 7 9 11 10 9 6 7 9 9 8 6 4 3 4 4 4 4 4 3 3 1 2 8 21 23 20 22 20 18 20 21 21 16 11 8 6 5 3 1 0 3 5 1 1 1 0 1 4 3 3 4 4 7 7 8 10 10 10 11 13 13 10 9 10 8 2 4 1 5 4 6 8 9 11 12 13 12 12 11
7 8 9 10 11 10 8 7 6 7 9 10 10 10 7 6 7 8 7 5 4 3 2 1 2 6 9 8 8 5 6 5 18 19 21 25 19 20 22 21 22 18 12 8 7 7 5 4 3 4 3 1 2 2 1 3 4 2 4 4 6 8 7 9 10 11 10 11 13 12 11 9 7 7 4 7 9 4 2 6 4 7 10 10 11 11 11 11
7 7 8 10 11 10 8 6 6 7 9 9 9 10 9 6 6 7 10 11 11 11 10 8 9 9 6 12 10 5 7 4 11 15 22 25 19 20 21 20 22 18 11 7 6 5 4 4 3 3 3 1 2 2 3 5 4 2 3 4 7 8 6 10 11 11 11 9 11 12 11 9 7 6 6 9 10 5 7 9 6 5 10 10 10 11 12 12
7 6 7 9 9 10 8 6 7 8 8 8 8 10 9 6 6 9 14 12 9 8 7 7 11 15 5 6 5 3 6 2 7 16 25 23 18 21 20 18 20 18 13 7 5 5 4 4 2 2 2 2 3 2 4 7 4 2 4 6 7 7 6 9 11 10 10 9 9 12 11 9 6 4 8 10 7 6 8 8 6 8 10 10 11 11 12 13
6 6 7 8 9 8 7 6 7 8 8 8 9 11 8 6 8 11 13 7 6 6 6 6 7 13 14 12 7 2 1 2 8 19 25 21 17 20 18 17 18 17 15 8 6 5 5 4 1 2 2 3 6 5 6 6 4 2 5 7 6 6 6 6 9 9 8 9 10 11 9 7 7 6 10 12 9 9 9 8 11 13 12 12 13 12 13 13
6 6 7 8 7 6 6 6 7 8 8 9 9 11 11 10 10 10 8 5 9 7 4 2 2 4 9 14 14 12 9 7 12 21 24 19 16 18 16 16 17 15 15 12 10 8 8 8 5 4 3 4 5 7 6 4 4 4 5 7 5 5 5 5 7 9 7 8 9 9 9 6 8 6 9 13 10 9 11 14 15 15 15 14 14 13 13 14
5 6 6 6 7 6 7 7 7 8 8 8 8 11 15 15 13 10 8 10 14 11 6 3 1 1 2 4 6 11 10 10 17 21 22 17 14 16 15 16 16 14 14 15 13 8 7 9 8 5 3 5 4 5 6 3 5 7 6 5 4 3 4 4 6 10 9 5 7 10 12 7 5 7 12 12 9 10 11 13 15 15 15 14 13 13 13 13
4 5 5 6 7 7 7 7 7 8 7 7 8 9 11 11 10 10 10 12 17 16 12 8 4 1 1 4 3 6 9 13 16 18 19 15 14 15 15 16 15 13 13 14 15 12 8 7 8 6 5 6 4 5 6 5 5 6 6 4 3 3 4 5 7 13 11 4 10 14 15 9 7 8 10 10 8 9 11 13 13 13 13 12 12 12 13 13
4 5 5 6 7 7 7 7 6 7 5 6 6 6 6 6 8 9 10 11 14 16 16 16 15 9 4 2 0 7 9 14 14 17 17 15 15 15 16 19 15 12 13 14 16 14 11 8 7 5 4 4 4 5 5 5 4 3 4 3 2 2 4 5 8 16 13 6 13 16 16 8 6 3 5 8 7 9 11 12 11 11 12 11 11 11 12 13
4 5 6 6 7 7 7 6 6 5 5 6 6 5 4 5 6 7 7 8 8 10 10 13 18 17 17 14 9 8 10 13 13 17 16 13 14 15 17 19 16 12 11 14 14 12 10 9 7 3 2 3 2 4 5 4 2 3 5 2 2 2 5 6 10 16 13 7 15 19 16 4 8 5 6 8 6 9 10 11 11 10 10 10 10 10 11 12
4 5 6 6 7 7 6 5 5 5 6 7 6 4 4 4 5 4 5 6 7 12 12 9 10 10 15 19 12 7 10 11 13 15 14 12 10 12 15 15 15 13 11 13 12 11 9 8 9 9 4 5 2 3 4 1 2 2 5 1 2 1 4 8 10 13 12 8 16 18 11 4 9 7 8 7 7 9 9 11 10 9 9 8 9 9 10 12
5 5 5 6 6 6 5 5 5 6 8 8 7 6 5 4 4 3 2 3 4 9 13 13 11 5 7 11 8 9 11 10 14 13 13 13 8 8 12 12 14 13 11 13 10 11 10 8 12 13 6 6 3 3 1 2 1 4 5 2 6 3 2 9 8 11 12 10 16 14 7 4 8 7 8 7 8 10 8 9 8 8 8 7 8 8 9 11
4 5 6 6 6 5 5 5 7 8 8 8 7 6 6 6 7 6 2 2 4 6 7 9 11 10 10 7 4 12 15 11 18 18 15 17 10 5 8 9 13 14 11 10 8 8 8 7 9 8 6 7 4 2 3 3 2 8 4 2 5 4 6 9 6 11 12 9 16 12 7 3 8 7 7 7 8 8 7 8 7 7 6 6 7 6 7 9
5 6 6 5 5 4 6 7 8 7 7 7 7 7 7 6 9 11 8 5 5 6 8 7 6 6 8 7 3 10 16 15 20 20 16 17 12 8 7 4 7 12 11 9 7 7 6 7 8 8 8 5 1 2 3 3 4 7 5 3 5 5 7 7 5 9 12 11 16 11 7 4 7 6 6 7 7 7 7 7 7 6 6 5 5 5 5 6
5 6 6 4 4 6 8 9 8 7 7 6 6 5 3 3 4 8 11 10 10 9 9 7 5 4 5 5 2 7 14 17 18 18 16 14 11 10 8 0 2 4 6 7 6 4 4 6 5 6 9 8 7 4 1 2 5 5 7 6 7 8 8 7 4 7 11 13 14 9 8 5 5 6 6 7 6 7 6 7 7 6 5 4 3 3 3 3
6 6 5 4 6 10 11 11 13 17 18 16 13 9 6 3 1 2 4 5 10 10 10 8 6 5 7 5 4 6 12 16 16 18 17 11 9 13 10 2 1 1 2 4 7 4 3 4 1 2 9 10 10 8 2 4 7 6 7 6 7 9 8 8 8 7 10 13 13 8 8 4 7 7 4 8 7 6 7 6 6 5 4 3 3 2 3 3
7 6 4 5 11 14 16 20 23 23 21 18 18 18 20 18 13 12 10 3 1 2 6 10 7 4 6 7 6 7 10 12 15 18 18 11 8 11 9 6 4 2 5 2 8 8 5 5 3 4 9 9 10 10 7 6 8 7 9 6 7 10 8 10 12 11 10 11 12 9 9 5 7 7 4 8 8 7 7 6 5 4 3 2 2 2 4 6
8 6 6 11 18 22 24 24 19 13 9 7 7 7 10 15 21 25 24 14 6 3 3 7 7 3 4 8 9 10 9 8 12 19 21 16 11 8 6 6 5 4 2 2 8 9 5 5 6 7 8 9 10 10 8 6 6 8 8 6 9 10 8 11 14 11 8 9 11 8 10 9 5 7 5 7 7 7 8 7 5 3 2 1 2 4 6 9
8 7 10 18 24 25 22 15 7 3 4 6 6 3 2 3 7 12 17 17 11 8 7 5 6 7 5 6 11 13 7 5 10 21 25 21 13 7 7 6 3 8 6 3 6 6 4 7 9 8 7 7 7 7 8 7 6 7 6 7 10 9 9 14 14 10 8 8 10 8 12 10 6 7 5 5 5 6 7 6 5 3 1 1 4 7 11 10
9 10 15 22 24 19 12 6 1 6 8 7 4 2 1 1 3 4 4 10 10 9 11 7 7 9 4 5 11 13 5 1 11 23 27 23 10 4 8 8 4 8 7 2 2 1 4 9 8 6 5 4 4 5 9 10 6 5 5 8 9 6 11 15 12 11 10 9 9 10 13 6 8 7 6 5 3 4 4 4 5 3 1 3 7 11 12 10
10 12 19 21 17 12 5 3 6 6 4 3 3 3 3 4 10 10 5 7 7 6 8 6 6 8 3 2 9 11 5 4 11 20 27 23 11 4 6 8 8 8 7 3 2 1 7 9 6 5 4 5 4 5 13 12 6 3 5 7 7 8 11 11 9 12 11 8 7 11 13 3 11 9 8 6 4 4 3 4 4 2 3 6 10 12 11 11
11 14 17 15 11 7 4 5 3 2 7 8 7 7 8 11 15 10 2 5 5 3 4 6 7 9 5 4 11 12 8 9 9 16 25 20 10 6 6 7 9 7 8 9 6 4 6 6 6 4 5 6 3 6 14 12 5 3 5 7 7 11 12 8 10 15 14 8 5 10 11 2 11 9 8 7 5 6 5 5 3 1 3 7 11 11 11 13
11 12 12 9 7 5 3 2 4 7 10 11 11 11 11 12 12 6 1 3 4 2 3 3 4 8 7 4 9 9 9 9 8 12 20 16 7 4 4 5 5 6 7 8 9 9 6 3 5 5 5 7 7 8 12 11 6 4 5 8 9 13 14 11 12 16 13 3 2 7 8 1 9 8 7 6 5 6 5 3 1 3 5 8 11 12 13 14
8 9 8 7 6 3 2 5 7 10 10 9 11 12 12 9 6 3 0 1 3 3 3 2 1 6 6 4 8 5 2 6 8 11 15 14 8 4 1 1 3 6 4 2 5 8 7 2 4 5 4 9 9 7 9 9 7 1 5 10 13 15 16 15 14 14 9 3 4 6 8 4 6 9 6 5 6 5 4 3 4 5 7 9 12 13 13 14
6 6 6 6 5 3 2 3 6 10 7 5 9 11 8 4 3 1 2 2 3 2 1 0 1 6 7 8 10 3 1 4 5 10 13 11 5 2 1 1 1 5 2 2 2 3 5 2 2 5 7 10 9 6 8 8 7 4 7 13 15 15 14 14 14 9 6 7 4 3 8 9 2 7 6 5 5 3 4 4 5 6 9 11 12 12 12 13
3 4 4 5 5 4 2 1 7 7 2 4 10 8 5 3 3 1 3 3 3 2 3 4 2 6 7 10 12 0 1 5 3 9 15 11 5 3 1 4 2 3 1 1 1 2 4 5 4 6 8 9 8 6 8 7 6 5 11 16 15 14 13 12 11 7 6 8 4 1 9 10 6 3 6 4 5 4 4 4 7 9 12 13 13 12 14 16
2 3 4 5 5 5 3 1 7 4 1 7 11 6 4 3 2 1 3 1 2 1 2 3 2 5 4 7 12 7 2 7 3 9 15 11 7 2 2 6 2 4 3 2 1 3 4 5 6 7 8 8 8 7 7 6 5 7 13 16 14 14 13 10 8 6 7 7 3 7 13 10 8 1 7 6 5 3 5 6 8 13 14 14 14 15 17 18
1 2 3 4 4 5 4 4 6 3 3 10 10 5 3 2 3 3 2 1 2 0 1 2 0 4 4 3 9 9 4 5 3 7 12 8 8 4 3 4 0 2 6 6 5 3 2 4 3 4 7 7 9 9 6 4 5 9 14 16 13 12 10 8 5 5 7 6 5 12 14 9 9 2 5 6 3 5 7 6 9 13 13 14 16 20 20 18
3 2 1 1 2 3 4 4 4 4 7 10 7 4 2 2 3 3 2 1 1 1 1 3 0 4 7 2 4 7 6 6 4 6 5 3 6 5 2 0 2 1 3 8 7 4 2 2 1 2 4 7 11 9 5 5 8 12 13 13 11 6 5 4 3 3 6 5 7 14 15 11 9 4 1 1 1 3 4 7 10 11 13 16 18 19 19 18
6 4 1 2 3 4 3 3 4 6 9 9 6 3 2 2 2 3 1 0 1 1 1 2 1 3 5 3 3 6 5 4 6 7 5 2 5 7 4 1 2 2 2 5 5 5 3 2 1 1 1 6 11 8 5 8 8 10 10 10 8 3 2 2 1 1 5 6 9 15 15 11 10 7 3 4 4 1 4 8 10 12 16 19 19 18 18 18
9 8 4 2 4 4 3 5 7 9 9 8 5 2 3 2 1 0 1 1 1 1 1 1 2 3 3 2 4 6 3 3 6 7 5 5 6 9 8 6 5 2 2 4 2 4 4 2 2 3 2 5 10 7 1 4 5 10 10 9 9 6 5 5 5 6 5 6 11 16 13 9 8 6 3 4 3 3 6 7 10 14 19 20 20 19 17 16
12 9 6 4 4 5 7 8 8 9 8 6 3 2 3 3 1 2 2 1 1 2 1 1 2 3 3 1 3 5 2 2 6 5 4 4 5 6 8 9 9 5 2 5 5 2 1 2 1 2 1 5 8 7 6 4 7 10 10 10 9 7 7 7 8 8 6 7 12 15 10 8 9 4 4 2 2 5 6 6 9 15 18 20 20 19 16 15
12 9 8 9 9 9 9 9 8 8 6 3 3 2 2 2 1 1 1 2 1 0 0 0 1 2 1 1 2 4 1 1 5 6 4 3 4 5 5 8 12 7 3 2 3 4 2 1 2 2 2 6 7 6 5 5 5 7 8 7 6 5 4 5 6 8 9 11 13 10 4 7 11 3 4 2 1 2 5 7 10 15 17 18 17 16 15 14
10 9 9 11 10 9 8 7 7 5 2 3 3 2 2 0 2 1 1 2 2 1 1 1 2 3 1 3 2 2 1 1 2 4 5 5 4 5 4 6 11 8 4 2 2 3 5 0 3 3 3 5 5 2 4 6 3 5 6 4 6 4 3 6 7 9 11 12 10 5 2 7 7 3 7 5 5 3 6 8 12 17 18 17 15 15 14 13
7 9 10 11 9 6 5 5 5 2 2 3 3 1 1 2 1 1 1 1 0 0 1 2 2 2 1 2 2 2 1 1 1 1 3 4 4 4 3 3 7 8 5 3 2 2 5 1 5 4 3 6 4 2 3 5 3 4 4 5 7 6 4 6 8 9 10 9 7 6 6 9 7 3 7 5 7 8 8 11 16 19 19 17 15 14 13 12
5 8 8 11 9 4 3 4 4 1 2 2 1 1 2 2 1 2 1 0 1 1 2 2 1 2 1 1 2 3 2 0 1 2 1 2 2 3 3 1 2 5 5 2 1 1 4 3 5 5 2 4 3 4 6 5 5 4 3 6 7 4 3 4 6 6 7 8 6 6 9 11 10 5 3 9 14 12 11 16 19 19 19 18 15 14 14 14
3 4 5 10 10 3 3 4 3 2 2 1 3 2 1 1 1 2 1 1 1 1 3 1 1 1 1 1 1 2 4 1 1 1 1 0 0 2 3 2 2 2 3 3 2 1 3 4 3 3 2 4 5 3 3 3 5 4 2 3 4 1 2 5 5 5 7 9 7 6 9 9 8 8 11 15 15 13 15 18 19 21 20 17 16 15 15 15
2 2 1 9 9 3 3 3 2 2 2 2 3 2 1 2 2 2 2 2 1 2 1 1 1 1 1 2 1 1 3 3 2 1 0 1 1 1 2 1 1 2 3 4 3 1 2 2 1 2 3 4 5 4 1 2 4 5 4 1 2 2 3 3 2 3 6 9 9 9 10 7 5 9 12 14 14 14 17 18 19 21 20 17 16 14 14 13
1 2 1 8 6 7 6 3 1 1 1 2 2 2 1 2 3 2 2 1 1 1 1 2 1 0 1 1 2 0 1 2 2 2 1 1 1 1 1 1 2 2 2 2 3 2 2 2 3 2 3 3 2 0 3 2 1 1 1 2 3 2 1 2 3 1 3 7 9 11 11 7 6 7 7 12 15 15 16 18 18 18 18 18 15 14 13 12
2 2 2 8 3 5 4 5 4 3 3 3 4 3 1 2 4 3 2 0 1 0 2 2 2 1 1 0 1 1 1 0 1 1 1 1 0 0 1 1 3 3 1 2 2 2 2 2 4 6 4 2 2 4 3 1 2 2 3 2 2 2 2 4 4 1 0 5 7 9 11 10 8 4 5 11 14 14 16 18 17 17 19 18 14 14 14 12
2 2 3 8 1 3 1 4 4 3 2 3 2 3 2 2 3 3 3 2 1 0 0 1 2 2 0 1 0 1 2 1 0 1 0 1 2 2 2 1 3 2 2 2 0 1 2 3 5 7 5 2 6 6 4 4 4 1 2 1 2 0 1 4 6 4 4 7 7 8 10 9 6 5 8 13 13 13 15 16 17 17 17 16 15 14 13 12
1 1 4 7 2 2 2 4 3 3 4 2 1 3 2 1 3 2 3 2 1 0 0 1 1 1 1 1 1 2 2 1 0 0 0 1 2 3 2 0 1 1 2 2 0 1 1 2 4 7 3 4 6 4 3 5 3 2 4 3 2 2 1 2 4 4 5 7 6 7 9 8 5 7 11 14 14 14 14 15 17 16 14 14 15 14 12 12
1 1 3 7 3 2 2 2 3 3 4 3 3 4 1 1 2 2 2 2 1 0 1 2 1 1 1 0 1 1 0 1 1 0 0 1 2 3 2 1 1 1 1 1 2 0 1 1 4 6 4 1 2 1 1 1 2 3 3 4 4 4 4 3 3 1 4 7 7 7 10 9 7 10 14 16 15 15 15 15 15 15 14 13 13 12 11 11
1 1 1 5 7 3 1 1 3 6 6 5 5 4 2 2 2 1 2 3 2 1 1 2 1 1 2 1 1 1 0 1 1 1 1 0 2 3 3 2 2 2 1 3 4 2 2 3 3 4 6 5 5 5 4 3 4 3 2 6 6 6 6 4 3 4 5 7 7 9 11 12 13 16 17 17 16 15 16 16 14 13 14 14 12 12 11 11
1 0 1 2 6 5 3 2 2 7 7 6 5 3 2 3 3 0 2 2 2 1 1 2 1 1 2 2 3 3 2 1 0 0 1 2 2 3 3 4 3 2 1 2 3 3 2 3 4 4 4 6 8 10 10 9 8 9 6 4 6 6 6 4 3 6 7 8 10 11 13 17 21 20 19 18 16 16 17 16 15 14 14 14 13 12 11 11
1 1 1 0 1 3 4 2 2 5 5 4 3 3 4 4 4 2 1 1 2 1 0 1 2 3 3 3 3 3 3 2 1 1 1 1 1 2 3 3 3 3 2 1 2 2 3 4 3 3 7 10 12 15 15 12 11 13 12 7 5 8 8 6 7 9 8 8 9 11 13 18 21 21 21 19 16 16 16 16 15 14 14 14 13 13 13 12
1 1 1 1 1 1 2 2 3 4 4 2 1 3 6 6 5 3 1 2 1 2 2 2 4 5 3 2 3 2 3 3 3 2 1 1 1 2 3 3 3 5 5 2 1 0 4 4 1 1 9 13 15 17 16 13 12 13 13 12 9 8 11 11 12 13 9 8 12 16 19 20 20 20 20 17 16 16 16 15 14 14 14 14 13 14 14 13
1 3 2 1 1 2 2 2 4 5 4 3 2 3 6 8 6 2 2 2 2 3 3 3 4 6 4 2 2 2 2 2 3 2 2 2 2 2 3 2 3 6 5 3 2 1 3 2 2 1 9 14 15 15 14 12 12 13 13 14 13 11 12 13 14 14 13 16 19 21 23 22 18 17 16 15 14 13 13 13 13 14 14 13 13 14 13 13
0 2 2 2 3 4 3 2 3 4 3 1 2 3 4 7 7 3 1 2 3 5 4 4 4 5 4 3 3 3 1 2 2 1 3 4 3 3 3 1 2 5 4 2 2 1 2 0 2 0 7 12 11 9 9 10 11 13 14 13 13 13 13 13 13 13 14 17 19 20 21 18 13 12 14 14 13 13 13 14 14 13 12 12 13 13 13 14
2 2 3 3 4 2 1 1 1 2 3 2 2 3 4 6 7 6 3 0 1 2 3 3 5 5 2 3 5 2 2 3 2 1 1 2 1 1 2 1 2 4 4 2 2 1 2 1 0 1 6 8 4 3 7 9 9 11 14 14 14 13 11 11 11 11 12 14 16 16 14 11 9 11 13 15 15 15 16 15 14 12 11 12 12 13 14 14
3 2 1 1 2 1 1 1 1 2 2 0 1 3 3 4 7 6 3 1 0 1 1 0 4 4 2 3 4 0 4 4 3 3 1 1 1 1 0 1 1 2 3 3 2 1 1 3 3 2 5 6 3 6 10 9 6 6 7 10 13 14 13 12 11 12 14 13 12 10 10 10 12 14 15 15 16 16 15 13 13 12 11 11 12 12 13 13
Wind_Direction
80 80 88 108 121 123 113 97 91 88 82 80 79 85 116 139 150 162 163 158 152 155 150 131 119 114 122 118 81 79 72 65 54 44 47 12 347 348 349 1 3 8 16 357 343 249 218 206 201 231 238 210 358 20 119 26 338 287 297 315 341 8 13 7 353 353 337 328 336 341 0 346 333 24 84 203 129 106 91 81 77 72 76 83 95 102 110 119
80 87 98 119 128 122 109 97 94 94 85 80 73 71 96 132 144 152 159 163 175 210 222 233 246 249 247 240 240 28 7 47 50 43 27 1 357 2 358 3 4 9 11 357 349 326 341 43 309 260 255 198 53 351 147 19 336 322 337 320 20 20 16 21 0 357 348 337 331 334 353 346 338 5 28 287 313 144 131 96 101 97 97 96 98 104 109 113
81 93 109 128 133 124 112 103 99 96 89 83 71 63 71 108 138 145 149 139 112 110 124 182 315 277 247 248 252 267 294 4 41 27 2 357 2 4 359 1 2 8 10 353 353 350 356 2 330 288 284 22 39 349 344 8 350 358 340 334 38 10 7 34 16 8 359 343 335 335 337 336 359 4 332 315 313 262 77 61 94 116 113 107 102 103 102 99
87 98 118 132 134 128 118 110 104 96 88 85 71 59 61 89 133 136 130 116 97 89 77 65 33 3 248 235 247 268 288 323 35 2 349 354 358 1 359 1 2 8 12 352 350 348 324 320 326 322 311 34 43 6 16 24 350 341 351 1 25 351 1 36 27 16 358 343 336 334 334 340 4 357 345 334 317 325 36 15 352 116 119 110 106 102 96 92
99 112 130 135 137 133 126 118 103 91 85 84 71 54 57 87 124 134 134 121 87 70 42 25 26 27 52 203 232 257 276 294 17 347 346 351 356 0 0 4 7 14 13 356 342 330 305 303 299 327 340 26 25 17 35 31 335 335 48 38 23 355 11 36 29 19 352 342 338 342 346 337 336 8 27 11 352 10 9 355 24 100 110 106 106 100 93 87
112 127 144 144 144 139 128 115 93 88 89 86 73 51 51 96 126 138 139 117 25 357 338 346 36 48 67 79 74 58 262 68 4 342 344 350 359 3 4 10 17 21 12 2 355 354 357 344 331 355 15 44 29 26 26 21 337 346 67 52 35 17 27 35 24 18 356 355 359 351 335 319 333 12 53 46 42 33 24 45 71 89 94 97 98 92 89 83
124 136 154 150 142 133 114 100 88 94 94 86 77 56 63 97 116 125 123 56 8 355 336 337 83 72 80 81 74 67 70 51 357 342 347 357 5 4 11 20 25 24 17 22 17 17 20 13 27 5 16 58 31 29 20 8 7 14 44 42 41 39 43 40 21 18 11 10 6 338 310 317 342 359 64 60 56 56 59 72 79 87 90 91 90 86 85 81
136 136 154 144 128 121 105 94 90 95 93 88 85 73 78 90 97 96 80 49 30 28 39 59 130 234 139 117 80 66 56 14 348 344 353 4 12 12 20 26 27 25 27 30 16 13 21 21 26 351 29 56 13 21 10 353 45 37 26 30 43 66 54 31 20 16 17 21 2 340 322 341 42 58 67 60 63 79 82 88 90 91 90 87 86 84 83 80
130 135 149 130 121 119 107 100 97 98 97 91 90 90 84 79 81 76 65 56 47 49 57 62 65 64 159 246 259 65 32 353 344 347 359 11 19 24 31 31 27 25 35 36 25 30 29 22 23 8 48 61 25 17 354 347 42 34 8 8 20 84 67 13 16 12 12 27 358 343 330 349 93 87 69 69 76 94 97 97 94 93 90 85 82 79 79 77
114 138 138 120 122 119 110 103 101 104 98 88 91 98 79 63 70 67 61 59 57 62 67 71 70 58 46 299 225 73 9 346 351 354 6 18 23 32 36 34 28 23 42 47 37 38 36 29 14 357 40 54 39 27 10 5 15 352 345 350 321 121 89 8 21 14 2 19 4 337 319 347 91 72 67 87 94 108 103 98 96 93 89 84 84 78 75 72
119 134 125 122 125 117 110 104 105 104 90 88 95 96 79 68 66 60 51 47 56 62 62 80 81 69 61 57 69 60 355 347 358 358 8 20 24 33 34 34 32 24 45 57 45 38 35 26 7 353 15 350 7 51 62 34 307 295 326 263 232 125 93 14 23 13 350 10 4 331 306 355 78 47 84 107 121 118 105 104 100 94 92 86 85 78 73 69
123 122 121 126 124 116 113 109 107 98 91 92 93 91 81 68 48 37 39 42 64 62 53 72 84 80 66 58 59 33 357 357 359 359 16 22 16 25 29 37 42 36 51 68 57 43 37 18 31 56 25 305 303 79 88 354 252 302 330 330 359 19 87 22 25 11 351 0 352 330 314 54 78 69 105 121 131 122 110 110 103 95 95 89 85 78 74 69
117 116 124 126 122 121 114 112 110 100 99 93 87 86 74 53 29 18 43 54 73 62 53 59 62 68 67 61 60 26 14 8 8 14 31 30 7 6 25 43 55 54 63 77 72 56 51 31 50 68 24 345 40 62 138 233 274 354 337 356 2 335 26 19 26 9 3 359 346 339 334 50 87 98 119 128 136 130 119 114 107 103 99 92 91 82 77 71
111 117 124 126 123 120 115 118 114 106 101 88 82 85 73 63 58 59 86 82 80 61 47 65 71 72 75 85 86 28 21 15 18 20 26 28 19 11 35 53 63 63 67 79 83 69 58 31 53 79 34 26 80 162 181 165 33 7 338 261 1 350 348 10 30 3 5 360 349 348 322 6 95 112 127 134 146 140 128 122 115 113 109 101 99 88 86 75
112 120 122 123 118 116 125 123 117 111 96 80 80 83 80 80 77 72 69 76 92 63 41 60 70 73 84 92 86 15 15 17 17 14 10 16 15 13 26 54 67 62 64 73 81 69 52 39 49 54 27 22 134 196 163 107 34 14 357 329 4 357 339 5 57 8 1 354 349 348 317 341 92 114 137 142 156 150 134 131 125 120 118 111 104 95 90 77
119 124 119 106 108 121 128 124 116 103 80 69 79 86 98 105 89 64 54 68 82 63 46 49 25 35 82 73 24 356 11 14 9 6 3 5 9 356 353 134 141 49 64 69 75 73 53 56 62 45 28 22 17 3 184 54 12 13 8 350 352 351 339 351 40 18 360 349 343 338 310 318 90 104 135 148 156 153 142 135 131 127 123 112 99 89 74 57
130 130 116 94 118 127 127 119 107 94 82 78 78 79 86 74 287 326 14 72 77 58 56 41 17 72 75 37 3 355 3 4 2 4 359 0 17 5 357 52 132 229 164 71 55 46 24 37 63 58 35 35 27 12 37 17 351 357 2 349 347 345 335 337 346 349 352 346 332 315 306 327 97 97 125 151 155 155 150 141 138 133 121 107 85 63 33 10
142 139 117 115 129 129 124 116 106 97 89 83 80 81 80 71 70 66 45 41 31 23 59 26 8 110 73 22 7 345 337 349 2 3 2 6 10 3 3 14 7 216 188 89 34 22 20 29 29 50 38 35 33 26 36 6 337 342 344 342 342 336 337 339 334 336 351 340 322 315 315 336 100 99 104 147 158 158 152 145 142 134 116 111 55 28 357 337
150 139 123 134 134 128 123 117 107 96 87 69 60 72 79 73 71 63 46 43 51 43 62 6 3 111 63 13 351 331 314 322 358 6 9 10 347 331 343 353 18 48 126 83 37 24 22 36 36 38 32 28 31 30 22 346 318 325 328 336 333 327 335 332 325 333 351 330 318 330 323 326 90 103 103 143 159 156 155 147 140 135 120 80 6 346 327 324
145 132 135 141 135 129 126 124 114 66 17 354 344 323 206 128 71 51 35 44 58 59 65 26 31 84 67 7 345 340 315 287 10 14 8 1 335 314 353 350 51 55 46 54 40 19 7 43 45 29 19 21 27 20 357 333 308 313 323 341 334 325 326 324 322 327 338 321 313 325 322 330 86 100 98 131 155 149 153 146 133 129 101 352 335 326 322 321
134 134 145 144 137 135 136 142 260 319 321 319 308 302 294 343 70 108 67 59 59 56 69 58 50 72 52 355 352 346 320 263 25 17 7 359 338 296 358 3 55 52 35 34 64 41 36 50 46 16 356 339 345 352 345 332 317 331 350 344 332 330 323 314 311 323 333 321 308 318 320 341 98 95 92 114 143 139 145 142 126 112 39 335 324 324 322 316
128 139 150 149 147 151 168 269 294 315 354 61 92 83 60 81 111 131 142 90 68 41 69 73 63 69 50 8 359 338 329 15 16 13 4 360 13 30 359 20 59 46 21 25 170 111 56 54 32 5 328 289 275 348 352 339 326 3 6 344 331 336 325 304 309 329 329 308 301 317 317 5 103 89 85 94 92 101 104 106 101 56 4 339 327 324 319 316
130 143 154 160 169 189 259 300 301 81 94 100 97 96 107 116 122 131 141 103 91 15 59 62 55 47 30 35 1 351 34 29 357 5 358 356 26 32 354 29 60 55 34 40 63 60 52 49 14 339 289 303 314 10 1 345 341 36 10 350 335 333 331 316 325 327 316 304 310 317 311 79 109 96 87 87 88 100 102 98 92 347 328 331 329 325 320 320
138 153 164 181 200 228 280 55 107 118 112 113 111 118 131 129 129 133 92 108 102 89 91 61 53 42 33 30 354 0 63 48 7 360 357 2 10 333 348 25 34 56 54 49 75 81 69 44 349 300 273 336 358 19 13 351 349 70 39 358 328 323 326 311 314 318 313 328 45 322 309 100 120 120 108 108 122 121 121 129 187 264 308 325 325 324 321 319
144 164 178 197 205 208 124 95 109 121 113 108 115 129 138 134 145 157 266 159 89 92 136 159 105 39 24 357 357 354 89 54 31 6 358 7 356 312 50 6 349 41 45 12 81 87 66 46 306 315 341 4 5 20 23 352 328 57 43 351 318 314 318 308 315 319 316 28 50 334 326 353 110 127 127 134 143 139 150 202 259 282 315 326 319 319 320 316
147 165 177 191 196 188 154 109 130 131 112 107 133 143 143 140 177 201 271 213 75 30 2 65 333 20 7 346 355 324 204 37 33 14 9 11 354 248 53 9 37 43 21 343 68 94 50 33 288 337 2 10 8 20 26 354 321 335 352 328 311 312 312 311 321 317 319 344 324 323 346 334 359 119 127 142 147 163 197 235 289 312 326 327 319 316 317 316
166 185 194 202 205 205 225 150 153 150 114 155 156 150 140 148 147 86 264 223 84 349 353 18 345 12 7 347 354 102 155 348 347 24 15 6 345 253 344 40 75 55 63 222 65 70 20 22 29 7 6 12 5 3 12 349 318 334 331 317 308 310 307 308 313 298 318 328 270 347 2 328 315 97 132 156 168 200 242 291 317 327 328 324 320 316 315 319
183 212 225 223 216 216 253 158 153 167 253 168 164 153 142 166 185 294 268 232 56 317 356 29 11 21 9 351 16 66 65 329 339 13 357 356 1 297 99 60 60 42 26 280 64 70 6 21 37 10 10 14 351 339 347 335 322 327 317 307 299 299 297 292 296 297 315 316 296 2 1 329 313 58 153 181 198 250 328 338 322 325 328 323 320 320 321 324
3 250 250 234 224 223 229 177 161 193 183 163 163 161 175 224 236 259 258 207 35 16 22 17 113 12 342 334 31 52 35 4 30 345 336 3 26 19 76 52 329 31 29 33 70 102 51 35 17 358 18 1 329 322 325 319 315 311 305 302 295 292 290 276 275 299 306 307 339 356 356 332 315 341 165 204 248 327 342 336 326 327 327 322 321 322 325 327
18 337 272 201 181 170 174 159 159 174 162 162 166 170 209 237 235 246 233 209 18 80 3 359 342 324 329 332 55 39 29 34 16 332 339 29 16 22 82 263 266 247 70 72 81 105 107 94 292 3 35 343 313 298 283 262 286 306 317 320 311 293 288 273 238 283 311 329 354 352 348 326 310 331 86 164 19 1 319 313 324 323 320 323 324 324 326 329
40 37 67 173 155 147 146 134 140 154 157 162 163 171 217 232 252 259 222 140 10 32 338 19 33 337 0 40 46 17 25 43 9 354 19 40 2 21 43 353 305 269 138 85 94 127 145 164 159 110 38 324 312 294 240 227 274 324 342 337 330 312 294 290 230 331 333 334 346 349 340 311 298 322 25 109 119 50 310 312 318 318 322 327 328 327 329 330
43 42 46 136 164 158 146 137 138 147 154 160 169 206 244 225 221 252 79 193 264 24 37 42 29 16 26 56 30 8 1 28 15 6 7 14 30 36 38 28 348 316 62 30 40 149 161 158 120 153 202 322 326 332 333 217 302 352 357 353 358 2 358 350 345 347 327 316 336 340 330 301 302 339 67 134 132 4 337 323 320 323 327 328 330 330 330 331
40 38 45 80 123 128 123 133 141 146 150 162 195 247 263 247 217 86 64 347 318 30 32 274 352 339 298 269 24 7 345 7 3 358 348 5 48 67 65 44 6 332 344 0 349 349 126 125 131 184 191 356 358 8 12 348 354 5 6 6 10 7 356 343 334 331 310 304 322 323 313 303 315 346 108 121 42 11 335 319 321 325 329 331 330 329 329 330
44 45 63 80 93 105 114 127 136 143 154 191 235 243 254 256 92 97 71 48 57 81 225 346 296 287 313 63 26 348 2 83 359 353 358 12 41 50 52 31 13 352 300 329 10 345 320 96 17 1 12 10 27 46 6 328 341 11 14 6 11 23 347 316 320 320 308 305 310 313 321 325 322 349 103 100 134 300 311 320 324 328 334 333 329 329 330 329
49 55 72 76 78 89 108 129 136 142 182 240 239 232 254 127 114 153 150 94 107 198 160 105 247 243 126 102 83 5 18 65 15 8 25 36 35 22 7 3 7 0 319 328 37 323 295 235 69 42 42 29 43 77 325 309 302 356 5 4 5 4 280 273 282 282 289 298 305 318 335 323 326 108 133 168 210 282 327 328 331 336 338 334 331 332 331 330
57 55 62 57 53 70 100 134 141 139 252 250 239 231 15 53 66 33 58 102 128 240 184 183 249 264 150 128 95 76 57 336 296 322 58 62 56 35 14 5 3 357 351 357 17 336 316 307 130 128 76 48 56 114 15 1 346 335 354 3 342 316 271 279 280 275 287 295 306 327 319 316 333 127 164 221 293 327 329 325 337 342 338 335 334 333 332 332
79 61 52 33 28 53 96 136 153 192 254 261 307 60 60 53 6 11 49 104 52 357 239 214 312 340 50 125 76 38 359 210 266 278 111 105 85 49 12 29 23 351 358 349 338 66 324 298 154 151 100 76 91 99 81 48 6 356 6 347 321 257 215 291 302 306 311 304 302 319 319 317 329 342 310 316 326 332 326 330 340 340 336 337 335 333 335 332
119 86 57 20 13 41 98 120 147 221 233 94 80 86 67 66 40 33 45 354 15 235 246 256 15 2 359 358 75 9 330 339 346 323 111 202 113 63 348 9 91 15 352 312 301 91 298 290 149 149 91 115 161 155 99 68 40 64 104 350 339 275 301 321 320 320 323 320 309 314 322 315 320 338 333 328 329 328 327 333 338 336 336 337 334 334 335 332
167 195 76 10 8 57 96 127 170 249 218 120 107 120 88 91 93 52 22 334 287 248 275 24 20 14 32 346 2 28 338 358 1 328 74 2 2 83 346 354 85 42 4 313 318 15 275 290 80 181 158 136 182 219 326 36 92 133 172 105 41 297 307 319 290 295 321 323 311 312 318 309 329 345 331 325 330 329 328 333 335 334 335 333 333 336 334 331
220 225 53 3 21 85 78 87 105 7 61 83 92 112 104 117 119 82 39 347 286 293 8 67 76 119 112 351 314 326 358 355 348 335 21 19 349 120 78 9 320 359 8 296 297 325 258 243 310 274 180 164 187 174 360 356 91 135 280 9 8 317 232 232 250 262 331 317 311 313 306 293 326 346 323 323 336 337 333 334 332 331 331 331 334 335 331 330
258 212 36 357 14 120 64 53 55 35 78 83 83 100 109 136 124 113 118 235 286 349 11 31 51 71 132 185 249 202 237 289 7 359 40 78 4 357 82 24 329 341 323 251 254 320 296 242 294 308 291 275 82 72 44 49 85 6 328 341 9 3 351 309 305 110 134 298 301 299 291 289 303 316 321 332 340 340 336 334 330 327 330 331 334 333 329 327
266 201 9 353 12 166 9 63 56 13 93 89 69 90 86 143 131 122 147 179 237 231 59 40 49 64 113 319 331 190 223 218 84 346 70 75 29 33 76 15 333 328 291 287 355 22 328 276 277 290 296 25 75 73 62 75 87 63 284 209 166 128 9 327 315 311 289 287 285 277 272 278 293 319 336 338 339 337 336 335 329 326 328 330 332 330 326 327
302 127 9 1 91 152 9 89 87 34 80 87 19 75 59 127 134 144 174 178 200 265 141 109 53 35 59 335 263 208 225 234 235 326 128 132 69 71 91 45 296 239 237 263 172 151 234 263 279 284 265 120 94 77 82 77 83 188 198 183 171 179 194 281 294 317 308 284 283 290 275 271 302 332 334 335 336 335 337 336 328 325 326 328 330 327 325 327
62 108 14 10 32 257 313 102 127 103 104 125 117 104 68 21 83 132 158 130 82 280 139 117 100 64 89 21 269 209 345 267 207 113 45 207 110 103 129 188 245 238 233 333 6 20 237 287 307 311 314 117 93 30 113 121 262 238 171 136 139 154 170 214 237 254 279 265 271 293 280 272 302 322 326 331 332 332 335 334 329 326 326 326 328 326 326 327
121 144 88 29 31 40 7 34 129 132 136 135 122 132 161 99 58 9 91 88 52 2 57 106 94 85 105 129 232 145 29 295 221 100 59 170 132 134 162 193 245 271 50 17 348 304 283 310 320 336 343 335 323 318 319 314 289 279 161 149 157 162 171 201 264 266 271 279 284 280 271 280 300 312 322 329 330 331 332 331 329 327 325 326 327 326 326 325
228 337 141 51 36 58 72 14 101 129 144 150 133 152 181 129 120 16 38 87 110 56 64 108 123 143 146 190 215 190 179 203 316 263 214 190 149 130 149 176 225 274 61 10 315 285 276 281 268 272 284 290 293 293 302 312 299 288 279 207 169 165 179 199 261 265 280 300 286 262 267 290 302 311 321 328 331 332 330 329 329 326 326 328 327 325 325 321
261 333 58 119 45 74 78 70 104 120 143 172 156 148 155 136 134 143 5 26 131 143 94 114 181 203 175 186 217 206 178 181 205 221 225 204 127 117 148 177 209 212 191 230 254 257 280 269 251 257 256 261 274 281 287 295 284 280 285 268 190 161 170 189 224 248 277 299 279 268 285 296 299 308 319 325 331 331 327 326 325 323 324 326 325 322 321 319
322 102 54 328 301 83 78 107 123 106 105 121 113 140 153 150 150 159 130 91 140 208 211 172 206 218 203 193 223 204 181 200 207 185 175 219 188 159 174 196 188 175 183 208 176 105 294 281 104 286 268 269 272 272 274 276 271 271 275 271 250 196 179 194 224 242 254 256 260 280 296 295 293 304 314 323 329 326 321 319 317 319 322 322 322 321 319 320
63 106 85 334 2 66 44 82 120 119 107 100 124 166 176 169 160 138 110 137 173 198 220 231 203 197 193 190 226 226 201 219 232 206 166 169 193 203 204 208 176 173 199 217 138 66 287 264 87 328 284 283 277 267 263 259 263 268 266 265 264 242 213 214 233 244 246 249 259 277 289 287 287 299 309 318 323 317 313 314 314 317 320 318 320 321 318 320
183 136 122 111 96 75 43 77 139 144 125 132 181 169 190 186 167 137 135 186 178 162 191 231 181 157 164 183 215 250 289 328 312 266 181 173 189 220 226 231 142 164 210 223 138 106 278 332 72 343 286 290 279 258 250 251 261 271 270 265 262 255 244 236 241 247 250 255 264 276 285 284 284 298 309 314 316 312 312 315 315 317 319 317 320 321 319 320
79 112 149 133 106 81 50 118 210 207 165 205 204 154 194 201 168 144 133 33 333 156 179 196 157 139 138 201 224 256 22 21 6 21 196 205 214 215 222 311 121 165 193 194 160 184 227 260 292 268 295 297 273 237 268 276 273 272 271 263 249 240 238 232 231 235 242 256 271 277 279 282 296 311 313 310 311 314 316 316 315 317 317 316 319 320 319 318
108 109 186 126 97 154 233 145 223 245 179 121 110 139 186 179 148 145 140 122 102 42 1 295 161 164 190 203 215 29 52 52 46 42 7 313 9 3 333 21 33 198 186 171 177 200 238 279 299 323 298 292 307 317 310 307 295 268 255 242 228 223 228 234 238 239 241 254 270 271 267 281 303 310 307 307 312 314 313 312 313 314 312 313 316 315 314 313